Theta_e
315 316 316 315 315 314 314 315 315 315 315 315 315 316 318 319 320 321 323 335 334 344 341 339 342 343 343 344 344 345 349 354 353 350 349 348 349 347 347 345 345 344 345 346 346
316 316 315 315 314 314 314 314 315 315 315 315 315 315 317 318 320 327 331 333 333 342 342 343 342 342 343 344 344 348 351 353 344 344 347 346 348 348 347 345 344 344 345 346 347
316 316 315 314 313 313 313 314 315 315 315 315 315 315 317 318 324 335 333 331 332 338 342 343 343 346 345 344 349 345 350 346 344 348 345 346 347 347 347 348 345 345 346 346 348
316 316 316 315 313 313 313 314 315 315 315 315 315 315 316 318 332 331 329 330 330 343 343 347 344 344 345 347 349 351 347 343 347 345 345 347 346 347 348 347 346 345 345 346 348
316 316 317 317 316 314 314 314 315 315 315 315 315 315 316 318 328 330 329 330 334 345 344 348 345 347 346 347 349 350 345 345 346 342 345 347 347 347 345 345 345 345 346 347 347
317 316 317 320 321 320 317 315 315 315 315 315 315 315 316 316 322 325 334 330 334 344 346 350 352 350 349 347 349 348 344 346 341 345 346 347 346 345 344 344 345 346 346 345 346
317 316 318 321 322 321 320 318 316 316 315 315 315 315 316 320 328 336 336 335 329 333 344 345 352 355 350 342 346 348 349 345 343 346 346 343 346 347 344 344 345 345 345 344 345
318 317 318 321 321 323 322 317 315 315 315 315 315 315 317 320 341 340 336 333 329 334 336 342 350 352 356 343 341 342 343 348 346 345 344 344 349 344 342 342 343 343 343 342 343
320 318 319 321 321 323 324 325 319 315 315 315 315 315 318 322 327 330 332 340 339 339 340 341 350 352 340 337 333 336 341 342 345 345 346 345 349 344 342 341 341 341 342 342 341
320 317 319 320 321 323 325 326 327 320 315 316 326 326 323 326 325 325 326 328 344 342 344 345 346 334 328 331 338 336 340 340 342 343 347 349 350 344 341 340 340 340 340 341 340
320 317 319 319 322 326 325 325 328 327 323 323 325 326 328 326 325 326 325 326 336 327 333 329 326 327 326 330 332 333 337 339 341 346 348 349 347 346 341 340 339 338 338 339 340
320 317 319 320 324 326 326 327 327 329 328 329 328 327 327 326 326 326 325 325 331 332 328 326 326 327 325 324 327 331 337 338 341 344 348 349 349 347 345 341 341 339 338 338 337
321 318 319 321 324 326 330 329 328 328 325 328 328 326 324 324 325 326 328 333 332 331 330 327 327 326 325 323 321 325 334 322 339 347 346 347 345 345 343 342 342 340 339 339 337
321 318 319 321 327 330 329 329 330 329 322 326 324 325 324 323 323 325 329 333 329 330 327 325 325 323 321 322 320 323 319 329 347 344 348 344 347 341 341 341 343 343 340 339 339
322 319 319 321 328 328 329 331 332 329 324 327 323 324 324 324 324 324 326 332 328 327 324 323 323 321 323 323 322 321 322 323 339 325 337 348 343 337 338 342 343 342 344 343 340
322 320 320 321 323 327 330 331 332 326 328 324 323 323 323 323 323 325 325 328 325 323 320 321 322 322 321 323 322 324 324 321 318 317 321 329 342 332 340 342 342 341 341 342 341
322 324 325 324 326 330 328 331 328 331 330 325 322 321 321 322 322 322 323 323 320 321 319 319 324 320 323 323 323 322 319 321 324 322 322 324 331 330 333 336 337 335 337 338 338
322 324 328 329 329 328 329 326 335 334 333 324 322 320 322 320 321 321 320 319 319 317 316 321 326 325 323 323 325 324 321 320 326 322 325 325 330 329 330 335 336 339 349 348 341
322 325 329 333 330 331 331 328 331 331 328 325 325 325 324 322 322 321 319 317 318 316 319 323 326 325 326 327 324 325 324 319 317 318 327 328 330 333 335 343 348 348 347 348 349
322 324 327 330 334 332 325 327 329 328 328 325 328 327 327 326 324 321 324 326 328 321 321 324 327 326 325 325 325 326 321 323 316 323 333 330 334 333 342 346 347 347 347 347 348
324 328 333 333 333 334 326 324 327 330 328 326 326 326 327 327 327 328 328 329 328 327 324 324 323 325 324 325 324 322 320 315 315 318 327 332 334 328 334 343 348 346 347 345 347
325 319 328 332 332 319 322 325 328 328 329 327 326 327 328 327 327 329 330 328 329 327 328 323 319 324 326 322 320 324 322 317 322 324 317 324 332 330 337 341 346 346 347 346 346
331 330 333 329 325 321 323 325 328 327 325 327 328 328 327 328 329 327 328 326 329 327 326 323 319 321 319 320 322 324 324 318 314 314 320 326 332 330 334 337 342 345 347 346 346
332 327 332 331 328 325 326 325 327 329 326 326 327 326 326 326 323 328 327 327 327 327 324 322 315 318 319 321 320 327 326 321 318 319 319 319 325 324 324 332 334 343 346 346 346
330 325 327 325 324 324 323 325 329 330 328 327 326 327 328 328 327 328 326 325 326 328 324 320 324 321 320 319 323 326 327 326 327 322 324 323 322 325 337 336 334 341 342 346 346
326 327 326 327 326 324 321 327 329 330 329 327 328 327 327 328 326 328 327 326 327 324 323 317 323 324 324 324 324 327 325 324 326 323 329 326 340 335 340 343 344 342 345 342 342
315 322 329 325 325 325 325 327 330 327 330 329 327 326 328 328 328 329 328 328 326 325 323 321 318 319 323 322 324 325 325 327 327 326 332 337 336 336 338 344 343 347 347 344 343
Wind_Speed
15 13 12 12 11 11 10 9 9 9 9 7 6 5 6 6 8 8 8 7 11 12 13 14 9 14 8 11 6 4 3 3 7 9 13 9 9 11 8 16 4 13 11 27 40
16 15 13 12 11 9 9 8 8 7 7 7 5 5 6 6 8 7 9 12 10 17 11 14 11 16 6 6 1 3 3 1 5 9 12 9 15 15 7 13 5 9 13 37 39
16 15 13 12 9 8 7 6 6 6 5 5 5 5 6 4 4 4 7 14 8 16 12 3 10 7 3 1 0 4 2 5 5 10 19 7 2 7 15 6 12 24 31 44 39
16 14 13 12 9 7 6 5 5 4 4 4 4 6 6 5 6 8 6 12 12 22 21 11 6 3 3 3 2 3 6 3 5 9 9 8 4 7 5 3 13 25 33 45 41
16 13 12 11 9 8 5 3 4 3 3 3 3 6 7 6 7 8 7 13 18 28 27 21 15 5 4 4 7 4 6 10 11 10 11 12 9 6 7 7 11 27 36 40 39
16 12 10 10 9 8 7 5 4 3 3 2 2 6 7 3 8 9 10 18 20 29 26 23 10 6 2 8 8 15 12 12 10 2 7 6 5 4 5 13 23 30 33 37 37
16 12 9 9 10 9 7 5 4 3 2 1 2 6 8 6 8 10 9 6 14 22 26 21 23 5 2 4 8 11 7 10 13 3 2 8 7 3 16 16 24 25 33 38 36
17 12 8 7 8 9 8 6 4 2 0 1 3 6 5 7 9 11 14 14 19 22 24 18 25 21 12 5 5 3 5 3 3 7 5 6 7 9 22 22 19 24 31 37 38
17 11 5 5 7 8 8 8 6 3 0 2 2 2 2 11 18 17 16 15 16 20 22 22 6 15 6 2 4 2 5 4 3 9 6 5 4 16 25 26 25 26 27 35 40
16 8 3 4 5 6 7 8 6 3 1 2 3 1 4 7 17 17 16 16 15 12 20 20 15 3 2 3 5 7 5 4 3 6 2 3 7 13 25 23 26 30 32 31 39
15 6 2 2 3 5 8 7 5 2 7 8 5 7 6 4 8 14 16 19 19 11 2 2 3 6 10 9 10 9 2 5 3 7 4 5 6 12 23 20 21 25 29 36 44
14 5 1 1 2 6 11 10 8 5 8 9 11 14 10 7 3 10 15 13 7 5 3 6 7 12 7 6 9 4 6 4 4 10 2 6 12 3 15 21 25 27 29 34 36
14 5 1 2 3 6 9 9 17 12 1 6 5 7 6 5 7 13 13 11 3 1 3 6 12 4 7 10 3 3 6 4 6 6 6 7 7 10 4 14 24 27 29 30 35
14 5 2 2 3 6 5 15 18 4 5 6 3 4 7 5 3 12 15 9 1 8 5 6 6 3 5 4 5 2 9 7 14 5 4 7 5 6 6 11 9 21 32 36 38
14 5 4 6 4 6 8 13 15 3 4 2 3 1 4 7 1 6 18 15 6 5 4 8 6 6 4 6 4 8 5 8 9 6 6 3 3 7 3 6 13 18 28 31 39
13 6 6 7 9 6 9 13 4 6 3 3 3 1 3 2 1 4 9 11 2 5 4 10 5 5 8 3 2 4 2 6 4 4 1 6 8 6 5 9 5 7 20 27 31
12 6 6 7 5 6 13 10 5 3 4 3 5 2 1 3 2 5 4 3 3 2 4 6 5 5 4 3 4 7 7 4 5 5 4 3 4 8 6 5 7 4 13 23 32
11 7 8 8 8 9 8 4 4 3 6 5 2 3 4 6 4 3 4 3 3 5 2 2 7 8 5 3 5 3 6 5 2 1 4 2 3 5 2 6 4 11 1 9 8
9 7 7 2 3 4 2 4 4 5 4 4 3 5 5 3 1 3 6 4 5 8 7 4 5 5 2 3 6 2 2 3 6 3 3 3 5 4 6 7 7 8 12 11 4
9 6 6 5 3 0 5 3 4 6 3 2 3 1 6 5 3 5 2 2 2 5 4 5 2 2 7 7 4 3 5 3 4 2 1 5 3 3 1 3 2 7 10 11 11
7 3 8 4 7 1 2 5 7 16 3 2 3 2 2 4 3 2 1 2 2 2 5 3 3 7 2 4 2 6 5 6 5 4 4 1 6 6 4 4 6 3 8 6 4
7 2 8 5 2 2 1 4 7 8 5 5 4 3 3 3 5 2 3 6 4 2 3 2 4 2 4 3 3 2 3 4 5 2 2 4 5 2 3 3 2 9 10 9 7
14 4 6 0 2 3 7 6 3 6 5 2 2 1 1 2 3 2 3 3 2 3 3 4 3 3 8 7 5 6 3 5 6 3 2 4 5 4 6 5 5 11 15 13 13
9 5 5 9 7 3 5 5 8 13 4 4 1 4 4 4 6 2 5 5 5 5 7 4 3 6 5 6 2 4 5 4 5 3 3 5 4 4 6 9 4 7 16 16 16
9 2 4 4 5 5 2 4 6 8 7 13 5 4 3 2 3 3 4 6 5 4 3 4 3 3 6 5 2 4 2 4 1 5 6 5 6 5 9 8 8 11 13 15 16
7 6 7 5 9 5 6 5 5 7 3 6 4 4 2 4 6 5 3 2 3 4 3 3 2 1 4 2 1 4 7 7 3 5 5 6 4 4 10 8 14 7 12 10 7
9 5 3 4 5 2 1 4 4 7 6 8 7 2 3 3 7 5 5 4 5 4 1 2 5 3 4 4 5 5 4 2 0 2 8 4 5 3 5 11 17 22 15 10 8
Wind_Direction
341 338 331 323 315 308 300 288 281 278 272 261 251 245 256 274 292 295 250 189 141 151 139 160 149 112 78 84 86 150 65 1 16 337 306 167 153 142 154 143 146 175 174 174 164
343 339 335 329 319 309 300 289 277 272 272 266 247 234 246 269 283 272 214 179 156 160 154 141 113 63 67 71 285 97 100 266 307 288 336 317 142 142 132 153 102 123 149 168 166
344 343 340 338 333 320 306 294 280 271 267 266 237 220 233 252 244 196 190 163 167 173 159 90 122 77 36 334 244 14 144 198 275 323 336 348 320 142 134 200 187 157 157 164 170
346 345 346 345 344 338 326 306 284 272 265 258 228 205 209 214 183 145 164 161 167 174 186 205 214 131 103 145 251 346 274 266 290 324 334 339 179 107 97 275 230 190 176 167 171
347 347 351 353 358 359 354 336 296 281 271 249 223 190 196 220 209 161 175 168 172 184 197 210 220 179 167 186 154 286 239 303 267 292 356 12 78 78 58 92 144 162 162 168 174
348 347 352 354 360 2 359 351 317 304 294 267 212 185 194 228 199 197 184 185 191 192 201 215 232 229 162 179 180 190 190 253 292 349 22 86 45 85 100 139 142 154 163 172 175
348 347 350 354 358 358 354 343 332 325 307 284 198 191 207 206 173 171 185 204 212 210 210 229 224 201 263 181 213 156 189 242 278 287 53 107 4 10 148 154 152 163 171 175 181
346 343 350 356 5 13 18 20 8 355 304 244 184 196 229 180 173 188 182 200 213 222 234 245 233 250 262 226 91 155 156 200 249 152 198 132 249 185 163 161 175 175 178 183 188
350 345 354 2 13 19 26 26 19 2 275 137 141 208 206 196 200 207 212 207 209 225 235 241 228 226 180 214 349 297 257 187 150 207 176 228 230 188 178 172 176 189 194 190 193
355 353 3 358 8 4 2 348 344 347 158 152 217 322 215 199 211 225 228 216 206 239 237 244 227 178 69 108 241 241 227 220 153 201 154 218 265 169 189 184 186 190 194 203 203
357 2 5 342 351 348 339 354 351 292 262 238 272 263 283 35 215 209 223 217 230 267 252 345 49 249 239 204 240 225 270 244 201 171 129 219 254 178 191 198 194 195 203 201 208
357 2 9 215 297 331 343 0 21 324 309 312 257 262 255 248 236 212 196 191 185 223 26 6 274 269 277 180 243 126 208 256 13 160 54 180 246 189 185 202 208 198 205 213 210
356 354 313 246 285 318 345 19 358 344 243 294 264 248 238 205 203 184 189 193 146 216 206 178 249 319 260 302 175 219 183 219 144 112 26 110 310 267 204 204 212 216 210 217 217
354 344 298 251 304 319 7 348 346 357 62 285 247 251 207 210 266 201 194 176 192 210 204 231 271 265 337 251 163 14 199 143 138 132 189 207 250 273 209 234 210 207 212 215 219
348 329 272 245 283 315 325 339 340 14 58 202 231 306 196 175 147 199 197 207 201 208 119 258 280 312 290 249 167 235 190 172 171 145 107 226 7 265 96 248 231 211 217 218 219
341 318 282 267 277 284 311 333 340 39 348 303 232 203 131 226 241 155 182 199 243 189 228 243 251 189 218 249 225 291 50 53 75 118 74 209 170 282 191 211 269 208 232 232 234
330 306 282 273 284 272 306 326 42 121 341 224 223 186 168 239 256 142 174 197 203 19 351 320 302 263 231 314 345 58 46 2 0 15 227 340 113 257 275 222 230 281 269 266 255
326 296 284 289 271 283 312 58 71 248 248 288 145 59 201 167 245 141 111 218 225 85 40 44 355 354 348 207 189 356 131 143 205 243 267 317 281 296 326 72 187 157 102 48 257
328 291 294 262 219 236 333 47 216 218 278 307 30 85 307 322 163 121 176 204 226 172 170 163 278 302 224 291 128 186 24 178 105 14 52 298 308 337 56 60 72 103 63 62 43
341 291 298 223 208 184 68 237 247 214 315 305 75 151 22 339 137 122 234 227 129 174 170 213 25 277 295 33 17 85 157 31 7 81 351 327 320 241 61 167 207 63 67 59 41
349 351 337 133 194 36 142 237 271 284 232 264 197 69 41 352 58 65 239 300 181 166 143 110 101 287 27 10 274 10 15 53 111 103 147 124 273 220 225 248 129 118 79 66 70
0 52 35 113 47 46 203 210 292 310 355 218 105 99 106 22 29 22 168 204 203 182 82 14 122 289 221 288 349 26 107 115 110 255 49 143 276 253 245 229 162 147 129 135 144
345 330 22 41 87 329 309 299 297 332 310 315 122 110 240 122 101 329 304 6 46 82 144 181 17 14 350 359 4 48 336 108 97 77 194 118 262 318 318 293 256 153 148 155 156
358 359 6 64 68 79 354 318 330 324 275 2 38 68 61 63 9 81 360 351 9 67 68 90 103 143 175 217 204 320 346 80 116 112 191 215 238 339 306 285 313 183 169 173 171
14 35 20 329 342 355 311 360 340 345 333 17 42 37 155 83 40 19 5 351 29 45 57 93 132 191 222 240 241 255 286 326 187 193 171 236 204 289 304 286 193 198 182 189 194
16 9 353 300 311 341 358 20 360 323 302 336 45 323 102 143 179 189 138 88 265 346 62 13 219 137 314 276 170 274 290 285 207 131 56 108 58 298 320 108 89 114 173 165 188
12 2 331 322 346 24 17 324 328 346 289 354 331 69 44 190 197 199 196 209 200 172 237 142 135 92 257 348 356 342 257 216 240 347 151 153 185 282 42 61 62 81 94 117 124